Location: Unspecified
(48.2082°N, 0.0000°E)
Time: 18:03:42
(UTC+00:00)

Tiros 1 despin weight - Pass Details

Date: 21 June 2019
Orbit: 594 x 642 km, 48.2° (Epoch: 24 August)

Event Time Altitude Azimuth Distance (km) Brightness Sun altitude
Rises 01:07:43 0° 251° (WSW) 2,837 - -16.8°
Reaches altitude 10° 01:10:01 10° 249° (WSW) 1,931 - -16.7°
Exits shadow 01:11:19 19° 247° (WSW) 1,432 ? -16.7°
Maximum altitude 01:14:25 73° 166° (SSE) 624 ? -16.5°
Drops below altitude 10° 01:18:50 10° 81° (E) 1,928 ? -16.3°
Sets 01:21:07 0° 80° (E) 2,832 ? -16.2°
